Weather History for KALS - August, 2014

Change the Weather History Date:

Monday, August 18, 2014

  Actual Average Record
Temperature  
Mean Temperature 63 °F 63 °F  
Max Temperature 85 °F 79 °F 90 °F (2002)
Min Temperature 41 °F 46 °F 35 °F (1960)
Degree Days  
Heating Degree Days 2 3  
Month to date heating degree days 39 35  
Since 1 June heating degree days 187 248  
Since 1 July heating degree days 61 80  
Cooling Degree Days 0 0  
Month to date cooling degree days 1 12  
Year to date cooling degree days 58 50  
Since 1 June cooling degree days 58 50  
Growing Degree Days 12 (Base 50)    
Moisture  
Dew Point 39 °F    
Average Humidity 46    
Maximum Humidity 76    
Minimum Humidity 16    
Precipitation  
Precipitation T in 0.05 in 0.75 in (1999)
Month to date precipitation T 0.74  
Year to date precipitation 3.35 4.42  
Snow  
Snow 0.00 in 0.00 in 0.00 in (2002)
Month to date snowfall 0.0 0.0  
Since 1 June snowfall 0.0 0.0  
Since 1 July snowfall 0.0 0.0  
Snow Depth 0.00 in    
Sea Level Pressure  
Sea Level Pressure 30.04 in    
Wind  
Wind Speed 6 mph (NW)    
Max Wind Speed 28 mph    
Max Gust Speed 37 mph    
Visibility 10 miles    
Events Rain    
T = Trace of Precipitation, MM = Missing Value Source: NWS Daily Summary

Daily Weather History Graph

Daily Weather History Graph

Search for Another Location

Airport or City:

Trip Planner

Search our weather history database for the weather conditions in past years. The results will help you decide how hot, cold, wet, or windy it might be!

Date:

Astronomy

Aug. 18, 2014 Rise Set
Actual Time 6:22 AM MDT 7:51 PM MDT
Civil Twilight 5:54 AM MDT 8:19 PM MDT
Nautical Twilight 5:21 AM MDT 8:52 PM MDT
Astronomical Twilight 4:46 AM MDT 9:27 PM MDT
Moon 12:32 AM MDT (8/18) 2:55 PM MDT (8/18)
Length of Visible Light 14h 24m
Length of Day
13h 29m
Last Quarter, 38% of the Moon is Illuminated
Aug 18
Last Quarter
Aug 25
New
Sep 2
First Quarter
Sep 8
Full
Sep 15
Last Quarter

Hourly Weather History & Observations

Time (MDT) Temp. Windchill Dew Point Humidity Pressure Visibility Wind Dir Wind Speed Gust Speed Precip Events Conditions
12:52 AM 51.8 °F - 39.2 °F 62% 30.33 in 10.0 mi East 4.6 mph - N/A   Clear
1:52 AM 48.9 °F - 39.9 °F 71% 30.04 in 10.0 mi Calm Calm - N/A   Clear
2:52 AM 48.0 °F - 39.0 °F 71% 30.04 in 10.0 mi Calm Calm - N/A   Clear
3:52 AM 48.9 °F - 39.9 °F 71% 30.04 in 10.0 mi East 5.8 mph - N/A   Clear
4:52 AM 46.0 °F 43.9 °F 39.0 °F 76% 30.07 in 10.0 mi NNW 4.6 mph - N/A   Clear
5:52 AM 44.1 °F - 37.9 °F 79% 30.09 in 10.0 mi Calm Calm - N/A   Clear
6:52 AM 46.9 °F - 39.9 °F 77% 30.12 in 10.0 mi NNW 8.1 mph - N/A   Scattered Clouds
7:52 AM 52.0 °F - 43.0 °F 71% 30.11 in 10.0 mi ESE 5.8 mph - N/A   Clear
8:52 AM 55.9 °F - 43.0 °F 62% 30.11 in 10.0 mi East 3.5 mph - N/A   Overcast
9:52 AM 63.0 °F - 44.1 °F 50% 30.08 in 10.0 mi Calm Calm - N/A   Clear
10:52 AM 69.1 °F - 41.0 °F 36% 30.06 in 10.0 mi Variable 3.5 mph - N/A   Clear
11:52 AM 75.9 °F - 39.9 °F 27% 30.02 in 10.0 mi Variable 5.8 mph - N/A   Clear
12:52 PM 77.0 °F - 39.9 °F 26% 30.01 in 10.0 mi Variable 3.5 mph - N/A   Clear
1:52 PM 80.1 °F - 37.0 °F 21% 29.96 in 10.0 mi Variable 4.6 mph - N/A   Clear
2:52 PM 84.0 °F - 36.0 °F 18% 29.94 in 10.0 mi NNE 8.1 mph - N/A   Scattered Clouds
3:52 PM 82.0 °F - 32.0 °F 16% 29.91 in 10.0 mi North 10.4 mph - N/A   Clear
4:52 PM 79.0 °F - 37.9 °F 23% 29.92 in 10.0 mi SW 9.2 mph - N/A   Clear
5:52 PM 79.0 °F - 36.0 °F 21% 29.91 in 10.0 mi SSW 5.8 mph - N/A   Clear
6:52 PM 75.9 °F - 42.1 °F 30% 29.90 in 10.0 mi West 8.1 mph - N/A   Clear
7:52 PM 73.9 °F - 37.9 °F 27% 29.90 in 10.0 mi WNW 8.1 mph - N/A   Clear
8:52 PM 75.0 °F - 30.0 °F 19% 29.93 in 10.0 mi Variable 6.9 mph 29.9 mph N/A   Overcast
9:16 PM 75.0 °F - 30.9 °F 20% 30.23 in 10.0 mi NE 9.2 mph 33.4 mph N/A   Overcast
9:52 PM 69.8 °F - 37.4 °F 31% 30.26 in 10.0 mi WSW 19.6 mph 31.1 mph N/A Rain Light Rain
9:59 PM 68.0 °F - 39.0 °F 35% 30.25 in 10.0 mi WSW 25.3 mph 33.4 mph 0.00 in   Overcast
10:52 PM 70.0 °F - 35.1 °F 28% 29.92 in 10.0 mi West 8.1 mph - 0.00 in   Overcast
11:52 PM 63.0 °F - 43.0 °F 48% 29.94 in 10.0 mi West 11.5 mph - 0.00 in   Overcast